Location: Unspecified
(0.0000°N, 0.0000°E)
Time: 20:36:25
(UTC+00:00)

Envisat - Pass Details

Date: 10 December 2017
Orbit: 764 x 766 km, 98.2° (Epoch: 18 December)

Event Time Altitude Azimuth Distance (km) Brightness Sun altitude
Rises 20:26:07 0° 179° (S) 3,231 6.6 -34.8°
Reaches altitude 10° 20:28:30 10° 185° (S) 2,303 5.8 -35.3°
Enters shadow 20:30:18 21° 194° (SSW) 1,649 5.0 -35.7°
